| time (UTC) | temp F | wind direction | speed MPH | gust MPH | rain 1hr in | rain 24hr in | rain mn in | humidity % | barometer mb |
| 20260504183036 | 53 | 300 | 4.0 | 15.0 | 0.00 | 0.00 | 0.00 | 33 | 1014.5 |
| 20260504180016 | 54 | 314 | 4.0 | 15.0 | 0.00 | 0.00 | 0.00 | 31 | 1015.5 |
| 20260504173016 | 52 | 330 | 4.0 | 14.0 | 0.00 | 0.00 | 0.00 | 38 | 1016.5 |
| 20260504050015 | 42 | 224 | 1.0 | 5.0 | 0.00 | 0.00 | 0.00 | 38 | 1019.9 |
| 20260504043017 | 43 | 267 | 0.0 | 3.0 | 0.00 | 0.00 | 0.00 | 36 | 1019.6 |
| 20260504040037 | 43 | 267 | 0.0 | 3.0 | 0.00 | 0.00 | 0.00 | 37 | 1019.4 |
| 20260504033017 | 44 | 267 | 1.0 | 3.0 | 0.00 | 0.00 | 0.00 | 36 | 1019.2 |
| 20260504030017 | 45 | 267 | 1.0 | 4.0 | 0.00 | 0.00 | 0.00 | 36 | 1019.0 |
| 20260504023016 | 47 | 271 | 1.0 | 4.0 | 0.00 | 0.00 | 0.00 | 35 | 1019.0 |
| 20260504020016 | 50 | 284 | 0.0 | 6.0 | 0.00 | 0.00 | 0.00 | 32 | 1017.7 |
| 20260504013017 | 51 | 288 | 0.0 | 14.0 | 0.00 | 0.00 | 0.00 | 31 | 1017.1 |
| 20260504010037 | 51 | 315 | 3.0 | 14.0 | 0.00 | 0.00 | 0.00 | 31 | 1017.1 |
| 20260504003036 | 52 | 281 | 4.0 | 14.0 | 0.00 | 0.00 | 0.00 | 29 | 1017.9 |
| 20260504000016 | 53 | 298 | 4.0 | 14.0 | 0.00 | 0.00 | 0.00 | 27 | 1018.3 |
| 20260503233017 | 55 | 279 | 4.0 | 14.0 | 0.00 | 0.00 | 0.00 | 26 | 1019.2 |
| 20260503230016 | 55 | 257 | 3.0 | 19.0 | 0.00 | 0.00 | 0.00 | 26 | 1019.3 |
| 20260503223016 | 55 | 289 | 4.0 | 19.0 | 0.00 | 0.00 | 0.00 | 27 | 1019.0 |
| 20260503220016 | 54 | 284 | 4.0 | 16.0 | 0.00 | 0.00 | 0.00 | 24 | 1018.8 |
| 20260503213016 | 54 | 295 | 5.0 | 17.0 | 0.00 | 0.00 | 0.00 | 28 | 1019.5 |
| 20260503210016 | 55 | 277 | 5.0 | 17.0 | 0.00 | 0.00 | 0.00 | 23 | 1020.6 |
| 20260503203016 | 55 | 275 | 3.0 | 21.0 | 0.00 | 0.00 | 0.00 | 24 | 1020.3 |
| 20260503200017 | 55 | 306 | 6.0 | 21.0 | 0.00 | 0.00 | 0.00 | 24 | 1021.3 |
| 20260503193016 | 56 | 307 | 4.0 | 15.0 | 0.00 | 0.00 | 0.00 | 20 | 1022.1 |
| 20260503190015 | 54 | 302 | 5.0 | 15.0 | 0.00 | 0.00 | 0.00 | 24 | 1022.0 |